Weather in Everett

United States     47°56′48″N   122°14′56″W
temp.,
°C
wind,
m/s
gust,
m/s
humid.,
%
clouds,
%
prec.,
mm/h
press.,
hPa
HPBL,
m
18 september, sat
sat1823:00+15wsw4996100 7.7 1001490
02:00+14sse61595100 7.6 10031163
05:00+13s51394100 8.6 1003863
08:00+13s51094100 0.3 1004782
11:00+16s61074100 0.8 10061167
14:00+18s576490 1.1 10061402
17:00+15sse5108348 3.7 10061057
20:00+11se41094100 2.3 1007393
19 september, sun
sun1923:00+12sse4109486 2.8 1008461
02:00+11sse3995100 0.4 1010435
05:00+11se269698 1.4 1011309
08:00+11se2796100 0.1 1013416
11:00+14sse358999 0.8 1015657
14:00+15ese358238 1.6 1016569
17:00+16sse358056 4.0 1017517
20:00+11ssw019884 4.0 102040
20 september, mon
mon2023:00+11ese129865 4.5 102247
02:00+11se139888 0.1 1024132
05:00+11sse1497100 0.2 1025203
08:00+11sse269686 0.0 1026367
11:00+15s3475100 0.1 1027710
14:00+20ssw1147100 0.0 10261263
17:00+19nnw224743 0.0 10261057
20:00+10nw128818 0.0 102621
21 september, tue
tue2123:00+9n11945 0.0 102615
02:00+9n11940 0.0 102516
05:00+8n11955 0.0 102414
08:00+10nne11870 0.0 102349
11:00+17nnw22520 0.0 1022458
14:00+20nw324683 0.0 1020505
17:00+18nw235595 0.0 1017264
20:00+11nnw1181100 0.0 101812
22 september, wed
wed2223:00+11w0081100 0.0 101810
02:00+12ssw1179100 0.0 101710
05:00+12s0079100 0.0 101911
08:00+12s1194100 1.0 102021
11:00+12se2595100 1.6 1022363
14:00+13se259499 0.1 1022364
17:00+14se1394100 0.3 1023182
20:00+13e119583 0.0 102417